Location: *
(45.9500°N, 9.0833°E)
Time: 00:16:24
(UTC+00:00)

SR - Pass Details

Date: 20 June 2021
Orbit: 577 x 878 km, 66.7° (Epoch: 23 July)

Event Time Altitude Azimuth Distance (km) Brightness Sun altitude
Rises 01:59:28 0° 313° (NW) 3,251 ? -12.3°
Reaches altitude 10° 02:02:44 10° 294° (WNW) 2,255 ? -12.0°
Maximum altitude 02:05:54 17° 256° (WSW) 1,777 ? -11.6°
Enters shadow 02:07:22 15° 235° (SW) 1,851 ? -11.5°
Drops below altitude 10° 02:08:54 10° 217° (SW) 2,119 - -11.3°
Sets 02:11:51 0° 196° (SSW) 2,968 - -11.0°
